STARLINK-32113, 60282

Orbit data source: Space-Track

STARLINK-32113, 60282 is a payload satellite owned by SpaceX/Seattle (US) in LEO that was launched on Sun, 28 Jul 2024 UTC via an FALCON 9 launch vehicle from the Air Force Eastern Test Range (AFETR). Payload-class satellites include a variety of spacecraft equipped with specific instruments for various scientific and technological missions. These include communications satellites like Starlink; space stations such as the ISS; scientific satellites like the Hubble; Earth observation satellites from companies like Planet Labs, Umbra, and HawkEye 360; GPS; miniature CubeSats for education and research; and military/defense satellites.

Loading next visibility...
Identifier
60282, 2024-132E
Orbit
LEO
Last TLE update
20 hours ago
Origin
Manufacturer
SpaceX/Seattle
Mission
Operational spacecraft
Bus & Motor
STARLINK V2M, Unknown motor
Mass
730 kg wet, ~700 kg dry
Launch date (UTC)
2024-07-28 (9 months ago)
Launch vehicle
FALCON 9
Launch site
Air Force Eastern Test Range (AFETR)
Object type
Payload
Rocket body
Debris
Shape & HBR
Unknown
Radar Cross Section
Large (>1 m²)

Expand to show TLE details & history

TLE from 20 hours ago
0 STARLINK-32113
1 60282U 24132E   25128.94089715  .00000623  00000-0  33170-4 0  9990
2 60282  53.1609  27.8404 0001019  61.7689 298.3415 15.30192331 44904
Epoch: 2025-05-08T22:34Z
Definitive object data (Epoch: 2025-05-08T22:34:53.513Z)
Latitude
-0°
Longitude
-177.88675°
Altitude
475.806 km
Speed
7.629 km/s
True Right ascension
01h 51m 21s
True Declination
0° 00' 00"
Sunlit
Object was in daylight at TLE epoch
Visualization TLE readout
Latitude
-31.03271°
Longitude
151.57146°
Altitude
484.948 km
Speed
7.623 km/s
Apparent Right ascension
20h 10m 55s
Apparent Declination
-59° 49' 55"
Sunlit
Object is in daylight
Visualization observer readout
Local Sidereal Time
02:58:01
Azimuth
219.476° SW
Elevation
-39.302°
Doppler factor
1
Orbital elements
Apogee altitude
476.193 km
Perigee altitude
474.796 km
Semi-major axis
6,853.631 km
Eccentricity
0.0001019
Inclination
53.1609°
RAAN
27.8404°
Arg. of periapsis
61.7689°
True anomaly
298.33122°
Mean anomaly
298.3415°
Eccentric anomaly
298.33636°
Mean motion
3.82527 °/min
BSTAR
0.00003317
Orbital period
94.11 mins
Loading maneuver chart data...
Loading SW <> Apogee altitude chart data...
Loading historical data...
Loading historical data...
Loading historical data...
Loading historical data...
Loading historical data...
Loading historical data...
Loading historical data...

STARLINK-32113 Visibility forecast

Observer location: undefined°, undefined°

Span
Click to sort rows by Start time (UTC) header in descending order
Start Az.
Max El. time (UTC)
Max El. Az.
Max El.
End time (UTC)
End Az.
5 mins2025-05-09 19:07:09.338Z187.099° SSW2025-05-09 19:10:09.338Z116.686° SE25.369°2025-05-09 19:12:09.338Z76.894° E
4 mins2025-05-09 20:46:09.338Z284.828° WNW2025-05-09 20:47:09.338Z313.793° NW28.908°2025-05-09 20:50:09.338Z29.559° NE
4 mins2025-05-10 01:43:09.338Z352.481° N2025-05-10 01:44:09.338Z19.901° NNE26.237°2025-05-10 01:47:09.338Z88.366° E
5 mins2025-05-10 03:20:09.338Z284.886° WNW2025-05-10 03:22:09.338Z236.713° WSW30.1°2025-05-10 03:25:09.338Z163.996° S
4 mins2025-05-10 18:39:09.338Z158.794° S2025-05-10 18:40:09.338Z132.987° SE22.918°2025-05-10 18:43:09.338Z75.242° E
|